Earlysville, VA

8:43 PM EDT on September 24, 2016 (GMT -0400)
Charlottesville-Albemarle

Weather History for KCHO - April, 2013

Change the Weather History Date:

Tuesday, April 2, 2013

  Actual Average Record
Temperature  
Mean Temperature 44 °F 52 °F  
Max Temperature 52 °F 63 °F 87 °F (1978)
Min Temperature 35 °F 40 °F 21 °F (1919)
Degree Days  
Heating Degree Days 21 14  
Month to date heating degree days 33 28  
Since 1 July heating degree days 3824 4032  
Cooling Degree Days 0 0  
Month to date cooling degree days 0 0  
Year to date cooling degree days 0 2  
Moisture  
Dew Point 10 °F    
Average Humidity 27    
Maximum Humidity 40    
Minimum Humidity 14    
Precipitation  
Precipitation 0.00 in 0.12 in 0.99 in (2005)
Month to date precipitation T 0.24  
Year to date precipitation 9.26 9.37  
Sea Level Pressure  
Sea Level Pressure 30.08 in    
Wind  
Wind Speed 6 mph (WNW)    
Max Wind Speed 14 mph    
Max Gust Speed 23 mph    
Visibility 10 miles    
Events      
T = Trace of Precipitation, MM = Missing Value Source: NWS Daily Summary

Daily Weather History Graph

Daily Weather History Graph

Search for Another Location

Airport or City:

Trip Planner

Search our weather history database for the weather conditions in past years. The results will help you decide how hot, cold, wet, or windy it might be!

Date:

Astronomy

Apr. 02, 2013 Rise Set
Actual Time 6:57 AM EDT 7:38 PM EDT
Civil Twilight 6:30 AM EDT 8:04 PM EDT
Nautical Twilight 5:59 AM EDT 8:36 PM EDT
Astronomical Twilight 5:26 AM EDT 9:08 PM EDT
Moon 1:37 AM EDT (4/2) 11:49 AM EDT (4/2)
Length of Visible Light 13h 34m
Length of Day
12h 41m
Waning Gibbous, 56% of the Moon is Illuminated
Apr 2
Waning Gibbous
Apr 3
Last Quarter
Apr 10
New
Apr 18
First Quarter
Apr 25
Full

Hourly Weather History & Observations

Time (EDT) Temp. Windchill Dew Point Humidity Pressure Visibility Wind Dir Wind Speed Gust Speed Precip Events Conditions
12:53 AM 42.1 °F 37.1 °F 16.0 °F 35% 30.00 in 10.0 mi NW 8.1 mph - N/A   Clear
1:53 AM 42.1 °F 37.1 °F 14.0 °F 32% 30.01 in 10.0 mi WNW 8.1 mph - N/A   Clear
2:53 AM 41.0 °F 39.0 °F 12.9 °F 32% 30.02 in 10.0 mi Variable 3.5 mph - N/A   Clear
3:53 AM 39.0 °F 36.8 °F 12.9 °F 34% 30.01 in 10.0 mi West 3.5 mph - N/A   Clear
4:53 AM 37.9 °F 35.5 °F 14.0 °F 38% 30.03 in 10.0 mi West 3.5 mph - N/A   Clear
5:53 AM 37.0 °F - 14.0 °F 39% 30.05 in 10.0 mi Calm Calm - N/A   Clear
6:53 AM 35.1 °F - 14.0 °F 42% 30.08 in 10.0 mi Calm Calm - N/A   Clear
7:53 AM 37.9 °F 34.4 °F 12.9 °F 36% 30.12 in 10.0 mi NW 4.6 mph - N/A   Clear
8:53 AM 41.0 °F 35.8 °F 12.9 °F 32% 30.13 in 10.0 mi West 8.1 mph - N/A   Clear
9:53 AM 43.0 °F 41.3 °F 12.9 °F 30% 30.13 in 10.0 mi Variable 3.5 mph - N/A   Clear
10:53 AM 45.0 °F 41.8 °F 12.9 °F 27% 30.13 in 10.0 mi Variable 5.8 mph - N/A   Clear
11:53 AM 46.0 °F - 10.9 °F 24% 30.12 in 10.0 mi Calm Calm - N/A   Clear
12:53 PM 48.0 °F - 10.0 °F 22% 30.10 in 10.0 mi WNW 10.4 mph 20.7 mph N/A   Clear
1:53 PM 50.0 °F - 8.1 °F 18% 30.08 in 10.0 mi Variable 6.9 mph - N/A   Clear
2:53 PM 50.0 °F - 8.1 °F 18% 30.06 in 10.0 mi Variable 5.8 mph 16.1 mph N/A   Clear
3:53 PM 52.0 °F - 6.1 °F 16% 30.04 in 10.0 mi Variable 5.8 mph - N/A   Clear
4:53 PM 52.0 °F - 3.9 °F 14% 30.04 in 10.0 mi NW 13.8 mph 23.0 mph N/A   Clear
5:53 PM 51.1 °F - 3.9 °F 15% 30.05 in 10.0 mi NW 13.8 mph 23.0 mph N/A   Clear
6:53 PM 50.0 °F - 3.9 °F 15% 30.07 in 10.0 mi WNW 13.8 mph - N/A   Clear
7:53 PM 46.0 °F 39.9 °F 6.1 °F 20% 30.09 in 10.0 mi WNW 13.8 mph - N/A   Clear
8:53 PM 43.0 °F 36.8 °F 7.0 °F 23% 30.12 in 10.0 mi NNW 11.5 mph - N/A   Clear
9:53 PM 41.0 °F 35.2 °F 8.1 °F 26% 30.15 in 10.0 mi NNW 9.2 mph - N/A   Clear
10:53 PM 39.9 °F - 8.1 °F 27% 30.17 in 10.0 mi Calm Calm - N/A   Clear
11:53 PM 39.0 °F 35.7 °F 9.0 °F 29% 30.17 in 10.0 mi NW 4.6 mph - N/A   Clear